Flag for U.S.A. Weather past 2 weeks in Garden Grove, California, U.S.A.

Now
62 °F

Clear.


Feels Like: 62 °F
Forecast: 51 / 68 °F
Wind: 5 mph from Northwest

Location: Fullerton Municipal Airport

Current Time: Dec 19, 2014 at 5:45:21 PM

Latest Report: Dec 19, 2014 at 4:53 PM


Visibility: 10 mi

Pressure: 30.14 "Hg

Humidity: 60%

Dew point: 48 °F

Location of Garden GroveLocation

Historic Weather in Garden Grove — Graph

°F

Garden Grove temperature yesterday

Maximum temperature yesterday: 64 °F (at 11:53 AM)
Minimum temperature yesterday: 48 °F (at 5:53 AM)
Average temperature yesterday: 56 °F

Past Weeks' High & Low Weather Summary

 TemperatureHumidityPressure
High80 °F (Dec 8, 1:53 PM)93% (Dec 9, 8:00 AM)30.23 "Hg (Dec 9, 8:00 AM)
Low47 °F (Dec 14, 5:53 AM)26% (Dec 8, 1:53 PM)29.82 "Hg (Dec 12, 3:53 AM)
Average60 °F72%30.05 "Hg
* Reported Dec 4 4:53 PM — Dec 19 4:53 PM, Garden Grove, Weather by CustomWeather, © 2014

Note: Actual official high and low records may vary slightly from our data, if they occured in-between our weather recording intervals... More about our weather records

Advertising

Garden Grove weather history for previous 24 hours

 ConditionsComfort  
Time TempWeatherWind HumidityBarometerVisibility
4:53 PM
Dec 19
62 °FClear.5 mph60%30.14 "Hg10 mi
3:53 PM64 °FSunny.3 mph54%30.14 "Hg10 mi
2:53 PM65 °FSunny.3 mph52%30.14 "Hg10 mi
1:53 PM66 °FSunny.3 mph45%30.15 "Hg10 mi
12:53 PM68 °FSunny.6 mph42%30.17 "Hg10 mi
11:53 AM66 °FSunny.No wind47%30.19 "Hg10 mi
10:53 AM65 °FSunny.No wind52%30.20 "Hg10 mi
9:53 AM61 °FSunny.3 mph60%30.23 "Hg10 mi
8:53 AM56 °FSunny.3 mph72%30.23 "Hg9 mi
7:53 AM50 °FSunny.3 mph86%30.22 "Hg8 mi
6:53 AM49 °FSunny.No wind86%30.21 "Hg8 mi
5:53 AM49 °FClear.No wind86%30.21 "Hg10 mi
4:53 AM49 °FClear.7 mph86%30.18 "Hg10 mi
3:53 AM50 °FClear.No wind86%30.19 "Hg9 mi
2:53 AM50 °FClear.No wind83%30.19 "Hg10 mi
1:53 AM50 °FClear.No wind86%30.20 "Hg10 mi
12:53 AM50 °FClear.No wind86%30.20 "Hg10 mi
11:53 PM
Dec 18
51 °FClear.3 mph86%30.20 "Hg10 mi
10:53 PM52 °FClear.No wind86%30.21 "Hg10 mi
9:53 PM53 °FClear.No wind83%30.21 "Hg10 mi
8:53 PM54 °FClear.No wind83%30.20 "Hg10 mi
7:53 PM55 °FClear.No wind80%30.19 "Hg10 mi
6:53 PM57 °FClear.No wind78%30.18 "Hg10 mi
5:53 PM59 °FOvercast.5 mph72%30.17 "Hg10 mi
Weather by CustomWeather, © 2014

See weather overviewHow to use our weather pages